EW4675 Weather Reports


time (UTC)temp
C
wind
direction
speed
KPH
gust
KPH
rain 1hr
cm
rain 24hr
cm
rain mn
cm
humidity
%
barometer
mb
20260506024507 21 162 6.4 12.9 0.00 0.00 0.00 53 1008.4
20260506024002 21 166 9.7 22.5 0.00 0.00 0.00 52 1008.5
20260506023503 21 186 4.8 11.3 0.00 0.00 0.00 51 1008.6
20260506023006 21 177 4.8 14.5 0.00 0.00 0.00 51 1008.6
20260506022003 21 155 4.8 19.3 0.00 0.00 0.00 50 1008.4
20260506020502 21 173 4.8 14.5 0.00 0.00 0.00 49 1008.5
20260506015503 22 191 4.8 19.3 0.00 0.00 0.00 48 1008.5
20260506015002 22 137 4.8 14.5 0.00 0.00 0.00 48 1008.5
20260506014503 22 202 6.4 14.5 0.00 0.00 0.00 48 1008.4
20260506013502 22 232 4.8 12.9 0.00 0.00 0.00 48 1008.5
20260506013003 22 213 3.2 8.0 0.00 0.00 0.00 48 1008.4
20260506012502 22 164 6.4 19.3 0.00 0.00 0.00 48 1008.3
20260506012003 22 180 8.0 16.1 0.00 0.00 0.00 47 1008.3
20260506011503 22 203 8.0 14.5 0.00 0.00 0.00 47 1008.2
20260506011002 22 114 4.8 11.3 0.00 0.00 0.00 46 1008.3
20260506010503 22 221 3.2 19.3 0.00 0.00 0.00 46 1008.1
20260506005503 22 245 6.4 14.5 0.00 0.00 0.00 44 1008.1
20260506004002 22 214 6.4 12.9 0.00 0.00 0.00 42 1008.0
20260506003505 23 163 3.2 8.0 0.00 0.00 0.00 42 1007.9
20260506003002 23 193 4.8 9.7 0.00 0.00 0.00 42 1007.8
20260506002503 23 165 4.8 16.1 0.00 0.00 0.00 42 1007.8
20260506002003 23 133 4.8 19.3 0.00 0.00 0.00 41 1007.7
20260506001504 23 207 4.8 11.3 0.00 0.00 0.00 41 1007.7
20260506001002 23 170 3.2 9.7 0.00 0.00 0.00 41 1007.6
20260506000503 23 191 1.6 11.3 0.00 0.00 0.00 41 1007.6
20260506000003 23 176 4.8 9.7 0.00 0.00 0.00 40 1007.5
20260505235502 23 181 4.8 16.1 0.00 0.00 0.00 40 1007.7
20260505234003 23 210 4.8 16.1 0.00 0.00 0.00 39 1007.5
20260505233503 23 199 4.8 11.3 0.00 0.00 0.00 39 1007.6
20260505232502 23 134 6.4 14.5 0.00 0.00 0.00 38 1007.5
20260505232003 24 221 4.8 14.5 0.00 0.00 0.00 38 1007.6
20260505231503 24 219 4.8 12.9 0.00 0.00 0.00 38 1007.5
20260505231003 24 185 4.8 9.7 0.00 0.00 0.00 38 1007.4
20260505230503 24 317 1.6 16.1 0.00 0.00 0.00 38 1007.3
20260505230002 24 235 4.8 14.5 0.00 0.00 0.00 37 1007.4
20260505225503 24 266 4.8 12.9 0.00 0.00 0.00 37 1007.4
20260505225003 24 239 6.4 19.3 0.00 0.00 0.00 37 1007.4
20260505224502 25 202 8.0 19.3 0.00 0.00 0.00 37 1007.2
20260505224003 25 244 8.0 16.1 0.00 0.00 0.00 36 1007.2
20260505223502 25 233 4.8 14.5 0.00 0.00 0.00 36 1007.3
20260505223003 25 223 4.8 9.7 0.00 0.00 0.00 36 1007.1
20260505222502 25 304 9.7 20.9 0.00 0.00 0.00 35 1007.0
20260505222003 25 259 8.0 16.1 0.00 0.00 0.00 35 1007.1
20260505221503 25 279 8.0 19.3 0.00 0.00 0.00 35 1007.0
20260505221002 26 260 3.2 9.7 0.00 0.00 0.00 35 1006.9
20260505220502 26 222 6.4 22.5 0.00 0.00 0.00 35 1007.0
20260505220002 26 205 4.8 19.3 0.00 0.00 0.00 34 1007.0
20260505215502 26 242 8.0 22.5 0.00 0.00 0.00 34 1006.9
20260505215003 26 196 8.0 20.9 0.00 0.00 0.00 34 1006.7
20260505214502 26 224 11.3 29.0 0.00 0.00 0.00 33 1006.7
20260505213503 26 244 11.3 27.4 0.00 0.00 0.00 34 1006.8
20260505212503 26 252 9.7 24.1 0.00 0.00 0.00 33 1006.7
20260505211502 26 198 9.7 22.5 0.00 0.00 0.00 33 1006.8
20260505211003 26 221 4.8 14.5 0.00 0.00 0.00 34 1006.7
20260505210502 26 150 3.2 11.3 0.00 0.00 0.00 33 1006.4
20260505210003 26 183 8.0 19.3 0.00 0.00 0.00 32 1006.5
20260505205506 26 192 4.8 16.1 0.00 0.00 0.00 32 1006.3
20260505204503 27 259 9.7 19.3 0.00 0.00 0.00 31 1006.4
20260505204003 27 267 9.7 25.7 0.00 0.00 0.00 32 1006.3
20260505203505 27 239 6.4 19.3 0.00 0.00 0.00 33 1006.3
20260505203003 27 186 4.8 19.3 0.00 0.00 0.00 33 1006.5
20260505202503 26 248 4.8 27.4 0.00 0.00 0.00 32 1006.5
20260505202002 27 256 14.5 27.4 0.00 0.00 0.00 32 1006.7
20260505201502 27 199 4.8 19.3 0.00 0.00 0.00 33 1006.6
20260505200503 26 281 11.3 27.4 0.00 0.00 0.00 32 1006.6
20260505200003 27 202 11.3 22.5 0.00 0.00 0.00 30 1006.7
20260505195503 27 275 9.7 24.1 0.00 0.00 0.00 32 1006.7
20260505195003 27 288 11.3 24.1 0.00 0.00 0.00 31 1006.7
20260505194003 27 207 11.3 25.7 0.00 0.00 0.00 33 1006.8
20260505193003 27 216 8.0 19.3 0.00 0.00 0.00 34 1006.7
20260505192003 27 281 6.4 19.3 0.00 0.00 0.00 34 1006.9
20260505191503 27 271 8.0 25.7 0.00 0.00 0.00 34 1007.0
20260505191002 27 293 11.3 20.9 0.00 0.00 0.00 33 1007.0
20260505190502 27 220 8.0 29.0 0.00 0.00 0.00 34 1007.0
20260505190003 27 312 8.0 19.3 0.00 0.00 0.00 33 1007.3
20260505185503 27 239 8.0 19.3 0.00 0.00 0.00 35 1007.2
20260505185003 27 230 6.4 19.3 0.00 0.00 0.00 36 1007.2
20260505184503 27 246 9.7 22.5 0.00 0.00 0.00 35 1007.3
20260505183503 26 223 3.2 14.5 0.00 0.00 0.00 39 1007.4
20260505183002 26 248 12.9 24.1 0.00 0.00 0.00 39 1007.5
20260505182503 26 306 11.3 19.3 0.00 0.00 0.00 37 1007.7
20260505182002 26 199 6.4 20.9 0.00 0.00 0.00 38 1007.7
20260505181502 26 300 14.5 25.7 0.00 0.00 0.00 38 1007.8
20260505181003 26 215 9.7 20.9 0.00 0.00 0.00 38 1007.8
20260505180503 26 277 11.3 29.0 0.00 0.00 0.00 35 1008.1
20260505180002 26 297 8.0 41.8 0.00 0.00 0.00 37 1007.8
20260505175003 26 283 8.0 27.4 0.00 0.00 0.00 38 1007.8
20260505174003 26 195 6.4 14.5 0.00 0.00 0.00 39 1007.9
20260505173503 26 288 8.0 22.5 0.00 0.00 0.00 39 1007.8
20260505173003 26 329 11.3 22.5 0.00 0.00 0.00 39 1007.9
20260505172503 26 250 8.0 19.3 0.00 0.00 0.00 40 1008.0
20260505172003 26 213 4.8 12.9 0.00 0.00 0.00 41 1008.0
20260505171503 26 223 4.8 22.5 0.00 0.00 0.00 43 1008.0
20260505165503 25 220 8.0 14.5 0.00 0.00 0.00 46 1008.6
20260505165003 25 289 4.8 12.9 0.00 0.00 0.00 45 1008.6
20260505164506 24 205 4.8 16.1 0.00 0.00 0.00 46 1008.6
20260505164003 25 310 8.0 16.1 0.00 0.00 0.00 46 1008.6
20260505163003 24 284 6.4 19.3 0.00 0.00 0.00 47 1008.8
20260505162503 24 293 6.4 14.5 0.00 0.00 0.00 46 1008.8
20260505162002 24 331 8.0 19.3 0.00 0.00 0.00 49 1008.9
20260505161503 23 301 6.4 12.9 0.00 0.00 0.00 47 1008.9
20260505161002 23 312 9.7 24.1 0.00 0.00 0.00 48 1008.9
20260505160503 23 325 8.0 19.3 0.00 0.00 0.00 48 1009.0
20260505153003 22 301 8.0 16.1 0.00 0.00 0.00 50 1009.4
20260505152503 22 263 8.0 19.3 0.00 0.00 0.00 51 1009.6
20260505152002 22 311 4.8 11.3 0.00 0.00 0.00 53 1009.6
20260505151503 22 255 3.2 11.3 0.00 0.00 0.00 52 1009.5
20260505150503 21 316 4.8 11.3 0.00 0.00 0.00 53 1009.6
20260505140502 20 287 9.7 19.3 0.00 0.00 0.00 55 1010.0
20260505124503 17 291 3.2 8.0 0.00 0.00 0.00 67 1010.0
20260505124003 17 236 3.2 11.3 0.00 0.00 0.00 67 1009.8
20260505123503 17 326 1.6 8.0 0.00 0.00 0.00 68 1009.7
20260505123003 17 221 3.2 4.8 0.00 0.00 0.00 69 1009.5
20260505122502 17 255 4.8 14.5 0.00 0.00 0.00 70 1009.6
20260505121502 16 167 3.2 11.3 0.00 0.00 0.00 72 1009.7
20260505120503 16 151 4.8 11.3 0.00 0.00 0.00 74 1009.4
20260505120003 16 155 4.8 12.9 0.00 0.00 0.00 76 1009.6
20260505115503 16 161 3.2 12.9 0.00 0.00 0.00 76 1009.7
20260505114502 15 169 3.2 4.8 0.00 0.00 0.00 76 1009.7
20260505114003 15 271 0.0 3.2 0.00 0.00 0.00 77 1009.7
20260505113503 15 138 1.6 4.8 0.00 0.00 0.00 76 1009.7
20260505113003 15 144 3.2 4.8 0.00 0.00 0.00 78 1009.6
20260505112502 14 167 3.2 8.0 0.00 0.00 0.00 79 1009.5
20260505112003 13 166 1.6 8.0 0.00 0.00 0.00 80 1009.5
20260505111503 13 157 1.6 9.7 0.00 0.00 0.00 80 1009.4
20260505111002 13 152 4.8 11.3 0.00 0.00 0.00 80 1009.3
20260505110502 13 144 4.8 8.0 0.00 0.00 0.00 80 1009.3
20260505101503 14 227 3.2 9.7 0.00 0.00 0.00 70 1009.8
20260505101003 15 236 4.8 16.1 0.00 0.00 0.00 68 1009.9
20260505100503 14 278 4.8 14.5 0.00 0.00 0.00 67 1009.8
20260505100004 14 175 6.4 9.7 0.00 0.00 0.00 68 1009.8
20260505095503 14 192 3.2 8.0 0.00 0.00 0.00 68 1009.6
20260505095003 13 228 1.6 8.0 0.00 0.00 0.00 68 1009.5
20260505094502 13 241 1.6 4.8 0.00 0.00 0.00 68 1009.6
20260505094003 13 246 0.0 3.2 0.00 0.00 0.00 68 1009.5
20260505093003 13 226 1.6 4.8 0.00 0.00 0.00 68 1009.4
20260505092503 13 242 1.6 3.2 0.00 0.00 0.00 68 1009.3
20260505091503 13 174 3.2 8.0 0.00 0.00 0.00 68 1009.3
20260505091003 13 208 1.6 4.8 0.00 0.00 0.00 68 1009.1
20260505090003 13 216 3.2 4.8 0.00 0.00 0.00 67 1008.9
20260505085503 13 175 4.8 8.0 0.00 0.00 0.00 67 1008.8
20260505085003 13 220 3.2 4.8 0.00 0.00 0.00 67 1009.0
20260505084002 13 168 3.2 8.0 0.00 0.00 0.00 67 1008.9
20260505083504 13 148 1.6 4.8 0.00 0.00 0.00 66 1008.8
20260505083003 13 159 1.6 4.8 0.00 0.00 0.00 66 1008.9
20260505082503 13 188 1.6 4.8 0.00 0.00 0.00 65 1008.9
20260505082003 13 157 1.6 4.8 0.00 0.00 0.00 65 1008.9
20260505081504 13 198 1.6 4.8 0.00 0.00 0.00 65 1008.8
20260505081003 14 183 1.6 4.8 0.00 0.00 0.00 64 1008.8
20260505080503 14 204 1.6 3.2 0.00 0.00 0.00 64 1008.8
20260505075503 14 196 3.2 4.8 0.00 0.00 0.00 64 1008.9
20260505075005 14 199 3.2 8.0 0.00 0.00 0.00 63 1009.0
20260505074003 14 169 1.6 12.9 0.00 0.00 0.00 63 1009.0
20260505073504 14 171 3.2 4.8 0.00 0.00 0.00 63 1009.0
20260505073003 14 240 1.6 4.8 0.00 0.00 0.00 63 1008.9
20260505072502 14 174 6.4 12.9 0.00 0.00 0.00 62 1008.9
20260505072003 14 339 4.8 11.3 0.00 0.00 0.00 62 1008.9
20260505071502 14 172 3.2 11.3 0.00 0.00 0.00 62 1008.8
20260505071003 14 190 3.2 11.3 0.00 0.00 0.00 62 1008.9
20260505070504 14 184 3.2 11.3 0.00 0.00 0.00 62 1008.9
20260505070003 14 194 6.4 12.9 0.00 0.00 0.00 62 1008.8
20260505065502 14 177 4.8 9.7 0.00 0.00 0.00 62 1008.9
20260505065003 14 257 3.2 14.5 0.00 0.00 0.00 62 1008.9
20260505064503 14 120 3.2 9.7 0.00 0.00 0.00 61 1009.0
20260505064003 14 199 3.2 8.0 0.00 0.00 0.00 61 1009.0
20260505063503 14 196 3.2 8.0 0.00 0.00 0.00 61 1009.1
20260505063003 14 205 1.6 11.3 0.00 0.00 0.00 60 1009.0
20260505062003 14 181 1.6 9.7 0.00 0.00 0.00 59 1009.0
20260505061503 15 194 3.2 9.7 0.00 0.00 0.00 59 1009.2
20260505061003 15 168 3.2 8.0 0.00 0.00 0.00 59 1009.1
20260505060503 15 163 3.2 8.0 0.00 0.00 0.00 59 1009.0
20260505055502 15 185 4.8 12.9 0.00 0.00 0.00 58 1009.1
20260505055003 15 268 3.2 9.7 0.00 0.00 0.00 58 1009.1
20260505054503 15 206 3.2 9.7 0.00 0.00 0.00 57 1009.1
20260505053003 15 198 3.2 11.3 0.00 0.00 0.00 57 1009.1
20260505052503 15 213 3.2 4.8 0.00 0.00 0.00 57 1009.1
20260505052002 15 150 4.8 14.5 0.00 0.00 0.00 57 1009.2
20260505051503 15 159 6.4 14.5 0.00 0.00 0.00 57 1009.2
20260505051003 15 171 6.4 12.9 0.00 0.00 0.00 57 1009.1
20260505050503 15 141 8.0 19.3 0.00 0.00 0.00 56 1009.2
20260505041503 16 168 9.7 14.5 0.00 0.00 0.00 53 1009.3
20260505041002 16 161 9.7 22.5 0.00 0.00 0.00 52 1009.2
20260505040504 16 142 9.7 19.3 0.00 0.00 0.00 53 1009.1
20260505034503 15 153 9.7 16.1 0.00 0.00 0.00 52 1009.3
20260505034003 16 158 8.0 14.5 0.00 0.00 0.00 52 1009.2
20260505033003 16 164 8.0 16.1 0.00 0.00 0.00 51 1009.4
20260505032503 16 150 8.0 19.3 0.00 0.00 0.00 51 1009.5
20260505032003 16 142 6.4 12.9 0.00 0.00 0.00 52 1009.6
20260505031503 16 161 6.4 19.3 0.00 0.00 0.00 51 1009.5
20260505031003 16 163 4.8 11.3 0.00 0.00 0.00 51 1009.5
20260505030504 16 174 8.0 12.9 0.00 0.00 0.00 50 1009.5
20260505030003 16 173 8.0 19.3 0.00 0.00 0.00 50 1009.6
20260505025004 16 175 6.4 16.1 0.00 0.00 0.00 50 1009.7